Time,TemperatureF,DewpointF,PressureIn,WindDirection,WindDirectionDegrees,WindSpeedMPH,WindSpeedGustMPH,Humidity,HourlyPrecipIn,Conditions,Clouds,dailyrainin,SoftwareType,DateUTC
2013-04-01 09:50:00,39.2,30.2,29.81,ENE,78,10.4,10.4,70,0.00,BKN,FEW,0.00,WeatherDisplay:10.37,2013-04-01 08:50:00,
2013-04-01 09:55:00,38.3,29.0,29.79,ENE,78,9.2,9.2,69,0.00,BKN,FEW,0.00,WeatherDisplay:10.37,2013-04-01 08:55:00,
2013-04-01 10:00:00,38.3,29.0,29.79,NNW,348,9.2,9.2,69,0.00,BKN,FEW,0.00,WeatherDisplay:10.37,2013-04-01 09:00:00,
2013-04-01 10:05:00,38.1,28.8,29.79,SE,145,5.8,5.8,69,0.00,BKN,FEW,0.00,WeatherDisplay:10.37,2013-04-01 09:05:00,
2013-04-01 10:10:00,38.3,29.4,29.79,SE,145,9.2,9.2,70,0.00,BKN,FEW,0.00,WeatherDisplay:10.37,2013-04-01 09:10:00,
2013-04-01 10:15:00,38.3,29.4,29.79,NNW,348,9.4,9.4,70,0.00,BKN,FEW,0.00,WeatherDisplay:10.37,2013-04-01 09:15:00,
2013-04-01 10:20:00,38.1,29.2,29.79,ESE,122,8.9,8.9,70,0.00,BKN,FEW,0.00,WeatherDisplay:10.37,2013-04-01 09:20:00,
2013-04-01 10:25:00,38.3,29.4,29.79,ENE,78,8.1,8.1,70,0.00,BKN,FEW,0.00,WeatherDisplay:10.37,2013-04-01 09:25:00,
2013-04-01 10:30:00,38.3,29.7,29.79,East,100,10.4,10.4,71,0.00,BKN,FEW,0.00,WeatherDisplay:10.37,2013-04-01 09:30:00,
2013-04-01 10:35:00,38.1,29.5,29.79,SE,145,7.4,7.4,71,0.00,BKN,FEW,0.00,WeatherDisplay:10.37,2013-04-01 09:35:00,
2013-04-01 10:40:00,38.5,29.2,29.79,ENE,78,15.0,15.0,69,0.00,BKN,FEW,0.00,WeatherDisplay:10.37,2013-04-01 09:40:00,
2013-04-01 10:45:00,38.5,29.2,29.79,ENE,78,5.8,6.0,69,0.00,BKN,FEW,0.00,WeatherDisplay:10.37,2013-04-01 09:45:00,
2013-04-01 10:50:00,38.7,29.0,29.79,ENE,78,8.1,8.1,68,0.00,BKN,FEW,0.00,WeatherDisplay:10.37,2013-04-01 09:50:00,
2013-04-01 10:55:00,38.5,29.2,29.79,East,100,11.5,11.5,69,0.00,BKN,FEW,0.00,WeatherDisplay:10.37,2013-04-01 09:55:00,
2013-04-01 11:00:00,38.5,28.8,29.79,ENE,78,8.1,8.1,68,0.00,BKN,FEW,0.00,WeatherDisplay:10.37,2013-04-01 10:00:00,
2013-04-01 11:05:00,38.5,29.2,29.79,ESE,122,10.4,10.4,69,0.00,BKN,FEW,0.00,WeatherDisplay:10.37,2013-04-01 10:05:00,
2013-04-01 11:10:00,38.5,28.8,29.79,ENE,78,7.7,7.7,68,0.00,BKN,FEW,0.00,WeatherDisplay:10.37,2013-04-01 10:10:00,
2013-04-01 11:15:00,38.7,29.0,29.79,East,100,7.1,7.1,68,0.00,BKN,FEW,0.00,WeatherDisplay:10.37,2013-04-01 10:15:00,
2013-04-01 11:20:00,38.5,28.8,29.79,SW,235,6.9,6.9,68,0.00,BKN,FEW,0.00,WeatherDisplay:10.37,2013-04-01 10:20:00,
2013-04-01 11:26:00,38.5,28.5,29.79,ENE,78,9.2,9.2,67,0.00,BKN,FEW,0.00,WeatherDisplay:10.37,2013-04-01 10:26:00,
2013-04-01 11:31:00,38.7,28.6,29.79,East,100,13.9,13.9,67,0.00,BKN,FEW,0.00,WeatherDisplay:10.37,2013-04-01 10:31:00,
2013-04-01 11:36:00,38.7,28.6,29.79,ESE,122,13.8,13.8,67,0.00,BKN,FEW,0.00,WeatherDisplay:10.37,2013-04-01 10:36:00,
2013-04-01 11:41:00,38.7,29.0,29.79,ENE,78,9.2,9.2,68,0.00,BKN,FEW,0.00,WeatherDisplay:10.37,2013-04-01 10:41:00,
2013-04-01 11:46:00,38.5,28.8,29.79,ENE,78,11.5,11.5,68,0.00,BKN,FEW,0.00,WeatherDisplay:10.37,2013-04-01 10:46:00,
2013-04-01 11:51:00,38.7,28.6,29.79,ENE,78,11.5,11.5,67,0.00,BKN,FEW,0.00,WeatherDisplay:10.37,2013-04-01 10:51:00,
2013-04-01 11:56:00,38.7,28.6,29.79,ESE,122,11.5,11.5,67,0.00,BKN,FEW,0.00,WeatherDisplay:10.37,2013-04-01 10:56:00,
2013-04-01 12:01:00,38.8,28.8,29.79,ENE,78,13.8,13.8,67,0.00,BKN,FEW,0.00,WeatherDisplay:10.37,2013-04-01 11:01:00,
2013-04-01 12:06:00,38.8,28.8,29.79,ENE,78,13.8,13.8,67,0.00,BKN,FEW,0.00,WeatherDisplay:10.37,2013-04-01 11:06:00,
2013-04-01 12:11:00,38.8,28.8,29.79,ENE,78,13.8,13.8,67,0.00,BKN,FEW,0.00,WeatherDisplay:10.37,2013-04-01 11:11:00,
2013-04-01 12:16:00,39.2,28.8,29.79,East,100,8.6,8.6,66,0.00,BKN,FEW,0.00,WeatherDisplay:10.37,2013-04-01 11:16:00,
2013-04-01 12:21:00,39.7,28.9,29.79,ENE,78,12.7,12.7,65,0.00,BKN,FEW,0.00,WeatherDisplay:10.37,2013-04-01 11:21:00,
2013-04-01 12:26:00,39.9,29.1,29.79,ENE,78,11.1,11.1,65,0.00,BKN,FEW,0.00,WeatherDisplay:10.37,2013-04-01 11:26:00,
2013-04-01 12:31:00,39.9,28.7,29.79,ENE,78,12.7,12.7,64,0.00,BKN,FEW,0.00,WeatherDisplay:10.37,2013-04-01 11:31:00,
2013-04-01 12:37:00,40.5,29.6,29.79,ENE,78,10.4,10.4,65,0.00,BKN,FEW,0.00,WeatherDisplay:10.37,2013-04-01 11:37:00,
2013-04-01 12:42:00,40.5,29.6,29.79,East,100,10.4,10.4,65,0.00,BKN,FEW,0.00,WeatherDisplay:10.37,2013-04-01 11:42:00,
2013-04-01 12:47:00,40.6,29.8,29.79,ENE,78,10.4,10.4,65,0.00,BKN,FEW,0.00,WeatherDisplay:10.37,2013-04-01 11:47:00,
2013-04-01 12:52:00,40.8,29.2,29.79,ENE,78,10.4,10.4,63,0.00,BKN,FEW,0.00,WeatherDisplay:10.37,2013-04-01 11:52:00,
2013-04-01 12:57:00,40.6,29.4,29.79,ENE,78,12.7,12.7,64,0.00,BKN,FEW,0.00,WeatherDisplay:10.37,2013-04-01 11:57:00,
2013-04-01 13:02:00,40.6,29.4,29.79,ENE,78,5.8,6.9,64,0.00,BKN,FEW,0.00,WeatherDisplay:10.37,2013-04-01 12:02:00,
2013-04-01 13:07:00,40.6,29.4,29.79,ENE,78,10.4,10.4,64,0.00,BKN,FEW,0.00,WeatherDisplay:10.37,2013-04-01 12:07:00,
2013-04-01 13:12:00,40.5,29.6,29.79,East,100,9.2,9.2,65,0.00,BKN,FEW,0.00,WeatherDisplay:10.37,2013-04-01 12:12:00,
2013-04-01 13:17:00,40.6,29.8,29.79,SE,145,9.2,9.2,65,0.00,BKN,FEW,0.00,WeatherDisplay:10.37,2013-04-01 12:17:00,
2013-04-01 13:23:00,40.8,30.0,29.79,ENE,78,6.3,6.3,65,0.00,BKN,FEW,0.00,WeatherDisplay:10.37,2013-04-01 12:23:00,
2013-04-01 13:28:00,40.8,29.6,29.79,ENE,78,9.2,9.2,64,0.00,BKN,FEW,0.00,WeatherDisplay:10.37,2013-04-01 12:28:00,
2013-04-01 13:33:00,40.6,29.4,29.79,ENE,78,10.4,10.4,64,0.00,BKN,FEW,0.00,WeatherDisplay:10.37,2013-04-01 12:33:00,
2013-04-01 13:38:00,40.8,29.2,29.79,SE,145,10.4,10.4,63,0.00,BKN,FEW,0.00,WeatherDisplay:10.37,2013-04-01 12:38:00,
2013-04-01 13:43:00,41.4,29.3,29.84,East,100,10.4,10.4,62,0.00,BKN,FEW,0.00,WeatherDisplay:10.37,2013-04-01 12:43:00,
2013-04-01 13:48:00,41.2,29.1,29.84,East,100,6.9,6.9,62,0.00,BKN,FEW,0.00,WeatherDisplay:10.37,2013-04-01 12:48:00,
2013-04-01 13:53:00,41.0,29.0,29.84,ENE,78,12.7,12.7,62,0.00,BKN,FEW,0.00,WeatherDisplay:10.37,2013-04-01 12:53:00,
2013-04-01 13:58:00,41.4,29.3,29.84,ENE,78,15.0,15.0,62,0.00,BKN,FEW,0.00,WeatherDisplay:10.37,2013-04-01 12:58:00,
2013-04-01 14:03:00,41.4,29.3,29.84,NW,325,8.1,8.1,62,0.00,BKN,FEW,0.00,WeatherDisplay:10.37,2013-04-01 13:03:00,
2013-04-01 14:08:00,41.4,29.3,29.84,ENE,78,6.9,6.9,62,0.00,BKN,FEW,0.00,WeatherDisplay:10.37,2013-04-01 13:08:00,
2013-04-01 14:13:00,41.4,29.3,29.84,ENE,78,12.7,12.7,62,0.00,BKN,FEW,0.00,WeatherDisplay:10.37,2013-04-01 13:13:00,
2013-04-01 14:18:00,41.2,29.5,29.84,ENE,78,6.9,6.9,63,0.00,BKN,FEW,0.00,WeatherDisplay:10.37,2013-04-01 13:18:00,
2013-04-01 14:23:00,41.2,29.9,29.85,East,100,8.1,8.1,64,0.00,BKN,FEW,0.00,WeatherDisplay:10.37,2013-04-01 13:23:00,
2013-04-01 14:28:00,41.2,29.9,29.85,ESE,122,9.5,9.5,64,0.00,BKN,FEW,0.00,WeatherDisplay:10.37,2013-04-01 13:28:00,
2013-04-01 14:33:00,41.0,29.7,29.85,ENE,78,10.5,10.5,64,0.00,BKN,FEW,0.00,WeatherDisplay:10.37,2013-04-01 13:33:00,
2013-04-01 14:38:00,41.2,29.9,29.85,ENE,78,11.5,11.5,64,0.00,BKN,FEW,0.00,WeatherDisplay:10.37,2013-04-01 13:38:00,
2013-04-01 14:43:00,41.4,30.1,29.85,East,100,8.1,8.1,64,0.00,BKN,FEW,0.00,WeatherDisplay:10.37,2013-04-01 13:43:00,
2013-04-01 14:48:00,41.4,30.1,29.85,ENE,78,8.1,8.1,64,0.00,BKN,FEW,0.00,WeatherDisplay:10.37,2013-04-01 13:48:00,
2013-04-01 14:53:00,41.5,30.3,29.85,ENE,78,15.0,15.0,64,0.00,BKN,FEW,0.00,WeatherDisplay:10.37,2013-04-01 13:53:00,
2013-04-01 14:58:00,41.5,29.9,29.85,ENE,78,11.5,11.5,63,0.00,BKN,FEW,0.00,WeatherDisplay:10.37,2013-04-01 13:58:00,
2013-04-01 15:03:00,41.4,29.7,29.85,ENE,78,11.5,11.5,63,0.00,BKN,FEW,0.00,WeatherDisplay:10.37,2013-04-01 14:03:00,
2013-04-01 15:08:00,41.5,29.9,29.85,ESE,122,6.9,7.5,63,0.00,BKN,FEW,0.00,WeatherDisplay:10.37,2013-04-01 14:08:00,
2013-04-01 15:13:00,41.9,30.2,29.85,East,100,9.2,9.2,63,0.00,BKN,FEW,0.00,WeatherDisplay:10.37,2013-04-01 14:13:00,
2013-04-01 15:18:00,41.9,29.8,29.85,ESE,122,13.8,13.8,62,0.00,BKN,FEW,0.00,WeatherDisplay:10.37,2013-04-01 14:18:00,
2013-04-01 15:23:00,41.9,30.2,29.85,NNW,348,6.2,6.2,63,0.00,BKN,FEW,0.00,WeatherDisplay:10.37,2013-04-01 14:23:00,
2013-04-01 15:28:00,42.1,30.4,29.85,ENE,78,5.8,5.8,63,0.00,BKN,FEW,0.00,WeatherDisplay:10.37,2013-04-01 14:28:00,
2013-04-01 15:33:00,42.1,30.4,29.85,SE,145,8.1,8.1,63,0.00,BKN,FEW,0.00,WeatherDisplay:10.37,2013-04-01 14:33:00,
2013-04-01 15:38:00,41.9,29.8,29.85,East,100,11.5,11.5,62,0.00,BKN,FEW,0.00,WeatherDisplay:10.37,2013-04-01 14:38:00,
2013-04-01 15:43:00,41.9,29.8,29.85,ENE,78,10.4,10.4,62,0.00,BKN,FEW,0.00,WeatherDisplay:10.37,2013-04-01 14:43:00,
2013-04-01 15:48:00,41.9,29.8,29.85,ENE,78,4.6,7.4,62,0.00,BKN,FEW,0.00,WeatherDisplay:10.37,2013-04-01 14:48:00,
2013-04-01 15:53:00,41.9,30.2,29.85,East,100,11.5,11.5,63,0.00,BKN,FEW,0.00,WeatherDisplay:10.37,2013-04-01 14:53:00,
2013-04-01 15:58:00,41.9,30.2,29.85,ENE,78,10.3,10.3,63,0.00,BKN,FEW,0.00,WeatherDisplay:10.37,2013-04-01 14:58:00,
2013-04-01 16:03:00,41.9,30.2,29.85,ENE,78,5.8,5.8,63,0.00,BKN,FEW,0.00,WeatherDisplay:10.37,2013-04-01 15:03:00,
2013-04-01 16:08:00,42.3,30.6,29.85,ESE,122,8.1,8.1,63,0.00,BKN,FEW,0.00,WeatherDisplay:10.37,2013-04-01 15:08:00,
2013-04-01 16:13:00,42.1,30.4,29.85,East,100,10.4,10.4,63,0.00,BKN,FEW,0.00,WeatherDisplay:10.37,2013-04-01 15:13:00,
2013-04-01 16:18:00,42.4,30.7,29.85,ESE,122,8.9,8.9,63,0.00,BKN,FEW,0.00,WeatherDisplay:10.37,2013-04-01 15:18:00,
2013-04-01 16:23:00,42.4,30.3,29.85,ENE,78,8.1,8.1,62,0.00,BKN,FEW,0.00,WeatherDisplay:10.37,2013-04-01 15:23:00,
2013-04-01 16:28:00,42.3,30.2,29.85,ENE,78,6.9,6.9,62,0.00,BKN,FEW,0.00,WeatherDisplay:10.37,2013-04-01 15:28:00,
2013-04-01 16:33:00,42.3,30.2,29.85,ENE,78,10.4,10.4,62,0.00,BKN,FEW,0.00,WeatherDisplay:10.37,2013-04-01 15:33:00,
2013-04-01 16:38:00,42.3,30.2,29.85,ENE,78,5.8,6.4,62,0.00,BKN,FEW,0.00,WeatherDisplay:10.37,2013-04-01 15:38:00,
2013-04-01 16:44:00,42.1,30.4,29.85,East,100,8.1,8.1,63,0.00,BKN,FEW,0.00,WeatherDisplay:10.37,2013-04-01 15:44:00,
2013-04-01 16:49:00,42.1,30.4,29.85,ENE,78,6.9,6.9,63,0.00,BKN,FEW,0.00,WeatherDisplay:10.37,2013-04-01 15:49:00,
2013-04-01 16:54:00,41.9,30.2,29.85,ENE,78,7.2,7.2,63,0.00,BKN,FEW,0.00,WeatherDisplay:10.37,2013-04-01 15:54:00,
2013-04-01 16:59:00,41.9,30.2,29.85,ENE,78,6.9,6.9,63,0.00,BKN,FEW,0.00,WeatherDisplay:10.37,2013-04-01 15:59:00,
2013-04-01 17:04:00,41.5,30.3,29.85,ENE,78,4.6,5.7,64,0.00,BKN,FEW,0.00,WeatherDisplay:10.37,2013-04-01 16:04:00,
2013-04-01 17:09:00,41.9,30.6,29.85,ENE,78,6.9,6.9,64,0.00,BKN,FEW,0.00,WeatherDisplay:10.37,2013-04-01 16:09:00,
2013-04-01 17:14:00,41.7,30.4,29.85,ENE,78,3.5,5.0,64,0.00,BKN,FEW,0.00,WeatherDisplay:10.37,2013-04-01 16:14:00,
2013-04-01 17:19:00,41.9,31.0,29.85,ENE,78,5.8,5.8,65,0.00,BKN,FEW,0.00,WeatherDisplay:10.37,2013-04-01 16:19:00,
2013-04-01 17:24:00,41.9,30.6,29.85,ENE,78,6.9,6.9,64,0.00,BKN,FEW,0.00,WeatherDisplay:10.37,2013-04-01 16:24:00,
2013-04-01 17:29:00,41.4,30.1,29.85,ENE,78,10.4,10.4,64,0.00,BKN,FEW,0.00,WeatherDisplay:10.37,2013-04-01 16:29:00,
2013-04-01 17:34:00,41.5,30.6,29.85,ENE,78,7.6,7.6,65,0.00,BKN,FEW,0.00,WeatherDisplay:10.37,2013-04-01 16:34:00,
2013-04-01 17:39:00,41.2,30.7,29.85,ENE,78,6.9,6.9,66,0.00,BKN,FEW,0.00,WeatherDisplay:10.37,2013-04-01 16:39:00,
2013-04-01 17:44:00,41.4,30.8,29.85,SE,145,9.2,9.2,66,0.00,BKN,FEW,0.00,WeatherDisplay:10.37,2013-04-01 16:44:00,
2013-04-01 17:49:00,41.4,30.8,29.85,ENE,78,6.9,6.9,66,0.00,BKN,FEW,0.00,WeatherDisplay:10.37,2013-04-01 16:49:00,
2013-04-01 17:54:00,41.2,30.7,29.85,ENE,78,4.6,5.3,66,0.00,BKN,FEW,0.00,WeatherDisplay:10.37,2013-04-01 16:54:00,
2013-04-01 17:59:00,41.2,30.3,29.85,ENE,78,10.4,10.4,65,0.00,BKN,FEW,0.00,WeatherDisplay:10.37,2013-04-01 16:59:00,
2013-04-01 18:04:00,41.2,30.7,29.85,ENE,78,9.2,9.2,66,0.00,BKN,FEW,0.00,WeatherDisplay:10.37,2013-04-01 17:04:00,
2013-04-01 18:09:00,41.0,30.5,29.85,ENE,78,8.2,8.2,66,0.00,BKN,FEW,0.00,WeatherDisplay:10.37,2013-04-01 17:09:00,
2013-04-01 18:14:00,40.8,30.3,29.85,ENE,78,4.8,6.0,66,0.00,BKN,FEW,0.00,WeatherDisplay:10.37,2013-04-01 17:14:00,
2013-04-01 18:19:00,40.6,30.5,29.85,ENE,78,5.8,5.8,67,0.00,BKN,FEW,0.00,WeatherDisplay:10.37,2013-04-01 17:19:00,
2013-04-01 18:24:00,40.6,30.5,29.85,ENE,78,5.8,5.8,67,0.00,BKN,FEW,0.00,WeatherDisplay:10.37,2013-04-01 17:24:00,
2013-04-01 18:29:00,40.6,30.5,29.85,East,100,12.1,12.1,67,0.00,BKN,FEW,0.00,WeatherDisplay:10.37,2013-04-01 17:29:00,
2013-04-01 18:34:00,40.6,30.9,29.85,SE,145,6.5,6.5,68,0.00,BKN,FEW,0.00,WeatherDisplay:10.37,2013-04-01 17:34:00,
2013-04-01 18:39:00,40.6,30.5,29.85,ENE,78,11.5,11.5,67,0.00,BKN,FEW,0.00,WeatherDisplay:10.37,2013-04-01 17:39:00,
2013-04-01 18:44:00,40.6,30.9,29.85,ESE,122,9.2,9.2,68,0.00,BKN,FEW,0.00,WeatherDisplay:10.37,2013-04-01 17:44:00,
2013-04-01 18:49:00,40.5,30.7,29.85,East,100,6.9,6.9,68,0.00,BKN,FEW,0.00,WeatherDisplay:10.37,2013-04-01 17:49:00,
2013-04-01 18:54:00,40.5,30.7,29.85,ESE,122,8.1,8.1,68,0.00,BKN,FEW,0.00,WeatherDisplay:10.37,2013-04-01 17:54:00,
2013-04-01 18:59:00,40.5,30.4,29.85,East,100,8.1,8.1,67,0.00,BKN,FEW,0.00,WeatherDisplay:10.37,2013-04-01 17:59:00,
2013-04-01 19:04:00,40.5,30.4,29.85,ENE,78,10.4,10.4,67,0.00,BKN,FEW,0.00,WeatherDisplay:10.37,2013-04-01 18:04:00,
2013-04-01 19:09:00,40.5,30.4,29.85,ENE,78,5.8,5.8,67,0.00,BKN,FEW,0.00,WeatherDisplay:10.37,2013-04-01 18:09:00,
2013-04-01 19:14:00,40.5,30.4,29.85,ENE,78,8.1,8.1,67,0.00,BKN,FEW,0.00,WeatherDisplay:10.37,2013-04-01 18:14:00,
2013-04-01 19:19:00,40.3,30.2,29.85,East,100,9.2,9.2,67,0.00,BKN,FEW,0.00,WeatherDisplay:10.37,2013-04-01 18:19:00,
2013-04-01 19:24:00,40.1,29.6,29.85,ENE,78,8.1,8.1,66,0.00,BKN,FEW,0.00,WeatherDisplay:10.37,2013-04-01 18:24:00,
2013-04-01 19:29:00,40.5,30.4,29.85,ENE,78,10.4,10.4,67,0.00,BKN,FEW,0.00,WeatherDisplay:10.37,2013-04-01 18:29:00,
2013-04-01 19:34:00,40.3,30.2,29.85,ENE,78,8.1,8.1,67,0.00,BKN,FEW,0.00,WeatherDisplay:10.37,2013-04-01 18:34:00,
2013-04-01 19:39:00,40.3,30.6,29.85,ENE,78,5.8,5.8,68,0.00,BKN,FEW,0.00,WeatherDisplay:10.37,2013-04-01 18:39:00,
2013-04-01 19:44:00,40.1,30.4,29.85,ENE,78,9.7,9.7,68,0.00,BKN,FEW,0.00,WeatherDisplay:10.37,2013-04-01 18:44:00,
2013-04-01 19:50:00,40.1,30.4,29.85,ENE,78,6.9,6.9,68,0.00,BKN,FEW,0.00,WeatherDisplay:10.37,2013-04-01 18:50:00,
2013-04-01 19:55:00,40.5,30.4,29.85,ENE,78,8.1,8.1,67,0.00,BKN,FEW,0.00,WeatherDisplay:10.37,2013-04-01 18:55:00,
2013-04-01 20:00:00,40.1,30.0,29.85,ESE,122,8.3,8.3,67,0.00,BKN,FEW,0.00,WeatherDisplay:10.37,2013-04-01 19:00:00,
2013-04-01 20:05:00,40.3,30.2,29.86,ESE,122,4.6,5.2,67,0.00,BKN,FEW,0.00,WeatherDisplay:10.37,2013-04-01 19:05:00,
2013-04-01 20:10:00,40.1,30.4,29.86,East,100,4.8,5.6,68,0.00,BKN,FEW,0.00,WeatherDisplay:10.37,2013-04-01 19:10:00,
2013-04-01 20:15:00,40.1,30.4,29.86,ENE,78,8.1,8.1,68,0.00,BKN,FEW,0.00,WeatherDisplay:10.37,2013-04-01 19:15:00,
2013-04-01 20:20:00,40.1,30.4,29.86,ENE,78,8.5,8.5,68,0.00,BKN,FEW,0.00,WeatherDisplay:10.37,2013-04-01 19:20:00,
2013-04-01 20:25:00,40.1,30.4,29.86,ESE,122,8.1,8.1,68,0.00,BKN,FEW,0.00,WeatherDisplay:10.37,2013-04-01 19:25:00,
2013-04-01 20:30:00,40.1,30.4,29.86,ENE,78,10.4,10.4,68,0.00,BKN,FEW,0.00,WeatherDisplay:10.37,2013-04-01 19:30:00,
2013-04-01 20:35:00,40.1,30.4,29.86,ENE,78,10.4,10.4,68,0.00,BKN,FEW,0.00,WeatherDisplay:10.37,2013-04-01 19:35:00,
2013-04-01 20:40:00,40.1,30.7,29.86,ENE,78,6.0,6.0,69,0.00,BKN,FEW,0.00,WeatherDisplay:10.37,2013-04-01 19:40:00,
2013-04-01 20:45:00,40.1,30.7,29.88,ENE,78,6.9,6.9,69,0.00,BKN,FEW,0.00,WeatherDisplay:10.37,2013-04-01 19:45:00,
2013-04-01 20:50:00,39.9,30.2,29.88,ESE,122,8.2,8.2,68,0.00,BKN,FEW,0.00,WeatherDisplay:10.37,2013-04-01 19:50:00,
2013-04-01 20:55:00,39.9,30.2,29.88,ENE,78,6.9,6.9,68,0.00,BKN,FEW,0.00,WeatherDisplay:10.37,2013-04-01 19:55:00,
2013-04-01 21:00:00,40.1,30.0,29.88,ESE,122,6.3,6.8,67,0.00,BKN,FEW,0.00,WeatherDisplay:10.37,2013-04-01 20:00:00,
2013-04-01 21:05:00,39.9,29.8,29.88,ENE,78,9.4,9.4,67,0.00,BKN,FEW,0.00,WeatherDisplay:10.37,2013-04-01 20:05:00,
2013-04-01 21:10:00,39.9,29.8,29.88,ENE,78,6.9,6.9,67,0.00,BKN,FEW,0.00,WeatherDisplay:10.37,2013-04-01 20:10:00,
2013-04-01 21:15:00,39.9,29.8,29.88,ENE,78,9.5,9.5,67,0.00,BKN,FEW,0.00,WeatherDisplay:10.37,2013-04-01 20:15:00,
2013-04-01 21:20:00,39.9,29.8,29.88,ENE,78,5.8,5.9,67,0.00,BKN,FEW,0.00,WeatherDisplay:10.37,2013-04-01 20:20:00,
2013-04-01 21:25:00,39.7,29.7,29.88,SE,145,5.8,5.8,67,0.00,BKN,FEW,0.00,WeatherDisplay:10.37,2013-04-01 20:25:00,
2013-04-01 21:30:00,39.7,29.7,29.88,ENE,78,5.8,5.8,67,0.00,BKN,FEW,0.00,WeatherDisplay:10.37,2013-04-01 20:30:00,
2013-04-01 21:35:00,39.7,29.7,29.88,ENE,78,6.9,6.9,67,0.00,BKN,FEW,0.00,WeatherDisplay:10.37,2013-04-01 20:35:00,
2013-04-01 21:40:00,39.7,30.0,29.88,ENE,78,9.2,9.2,68,0.00,BKN,FEW,0.00,WeatherDisplay:10.37,2013-04-01 20:40:00,
2013-04-01 21:45:00,39.7,30.4,29.88,East,100,6.9,6.9,69,0.00,BKN,FEW,0.00,WeatherDisplay:10.37,2013-04-01 20:45:00,
2013-04-01 21:50:00,39.9,30.6,29.88,ESE,122,9.3,9.3,69,0.00,BKN,FEW,0.00,WeatherDisplay:10.37,2013-04-01 20:50:00,
2013-04-01 21:55:00,39.9,30.2,29.88,ENE,78,10.4,10.4,68,0.00,BKN,FEW,0.00,WeatherDisplay:10.37,2013-04-01 20:55:00,
2013-04-01 22:00:00,39.7,29.3,29.88,SE,145,5.8,7.5,66,0.00,BKN,FEW,0.00,WeatherDisplay:10.37,2013-04-01 21:00:00,
2013-04-01 22:05:00,39.7,29.3,29.88,East,100,9.4,9.4,66,0.00,BKN,FEW,0.00,WeatherDisplay:10.37,2013-04-01 21:05:00,
2013-04-01 22:10:00,39.7,29.3,29.88,ENE,78,5.8,6.8,66,0.00,BKN,FEW,0.00,WeatherDisplay:10.37,2013-04-01 21:10:00,
2013-04-01 22:15:00,39.7,29.7,29.88,ENE,78,10.4,10.4,67,0.00,BKN,FEW,0.00,WeatherDisplay:10.37,2013-04-01 21:15:00,
2013-04-01 22:20:00,39.6,29.1,29.88,ENE,78,8.1,8.1,66,0.00,BKN,FEW,0.00,WeatherDisplay:10.37,2013-04-01 21:20:00,
2013-04-01 22:25:00,39.7,29.3,29.88,ENE,78,11.8,11.8,66,0.00,BKN,FEW,0.00,WeatherDisplay:10.37,2013-04-01 21:25:00,
2013-04-01 22:30:00,39.6,29.1,29.88,ENE,78,12.7,12.7,66,0.00,BKN,FEW,0.00,WeatherDisplay:10.37,2013-04-01 21:30:00,
2013-04-01 22:35:00,39.4,29.0,29.88,East,100,13.8,13.8,66,0.00,BKN,FEW,0.00,WeatherDisplay:10.37,2013-04-01 21:35:00,
2013-04-01 22:40:00,39.4,29.0,29.88,ENE,78,8.1,8.1,66,0.00,BKN,FEW,0.00,WeatherDisplay:10.37,2013-04-01 21:40:00,
2013-04-01 22:45:00,39.2,28.8,29.88,ENE,78,9.2,9.2,66,0.00,BKN,FEW,0.00,WeatherDisplay:10.37,2013-04-01 21:45:00,
2013-04-01 22:50:00,39.2,28.4,29.88,ENE,78,8.1,8.1,65,0.00,BKN,FEW,0.00,WeatherDisplay:10.37,2013-04-01 21:50:00,
2013-04-01 22:55:00,39.2,28.4,29.88,ENE,78,7.0,7.0,65,0.00,BKN,FEW,0.00,WeatherDisplay:10.37,2013-04-01 21:55:00,
2013-04-01 23:00:00,39.0,28.6,29.88,ENE,78,8.1,8.1,66,0.00,BKN,FEW,0.00,WeatherDisplay:10.37,2013-04-01 22:00:00,
2013-04-01 23:05:00,38.7,28.3,29.88,ENE,78,14.0,14.0,66,0.00,BKN,FEW,0.00,WeatherDisplay:10.37,2013-04-01 22:05:00,
2013-04-01 23:10:00,38.7,27.9,29.88,ENE,78,11.5,11.5,65,0.00,BKN,FEW,0.00,WeatherDisplay:10.37,2013-04-01 22:10:00,
2013-04-01 23:15:00,38.5,27.7,29.88,ENE,78,11.6,11.6,65,0.00,BKN,FEW,0.00,WeatherDisplay:10.37,2013-04-01 22:15:00,
2013-04-01 23:20:00,38.3,27.9,29.88,ENE,78,13.8,13.8,66,0.00,BKN,FEW,0.00,WeatherDisplay:10.37,2013-04-01 22:20:00,
2013-04-01 23:25:00,38.3,27.9,29.88,ENE,78,9.3,9.3,66,0.00,BKN,FEW,0.00,WeatherDisplay:10.37,2013-04-01 22:25:00,
2013-04-01 23:30:00,38.1,27.8,29.88,ENE,78,8.1,8.1,66,0.00,BKN,FEW,0.00,WeatherDisplay:10.37,2013-04-01 22:30:00,
2013-04-01 23:35:00,37.9,27.6,29.88,ENE,78,8.1,8.1,66,0.00,BKN,FEW,0.00,WeatherDisplay:10.37,2013-04-01 22:35:00,
2013-04-01 23:40:00,37.9,28.0,29.88,ESE,122,5.8,6.3,67,0.00,BKN,FEW,0.00,WeatherDisplay:10.37,2013-04-01 22:40:00,
2013-04-01 23:45:00,37.9,28.0,29.88,ENE,78,9.2,9.2,67,0.00,BKN,FEW,0.00,WeatherDisplay:10.37,2013-04-01 22:45:00,
2013-04-01 23:50:00,37.8,27.8,29.88,ENE,78,6.9,7.0,67,0.00,BKN,FEW,0.00,WeatherDisplay:10.37,2013-04-01 22:50:00,
2013-04-01 23:55:00,37.8,27.8,29.88,ENE,78,6.9,6.9,67,0.00,BKN,FEW,0.00,WeatherDisplay:10.37,2013-04-01 22:55:00,